Quick links : Home Page : Contact Us : Index : Site Map : Search Site : Ephemerides


C/2008 J5 (Garradd)

Orbital Elements

The following orbital elements are taken from MPEC 2008-M29:
C/2008 J5 (Garradd)
T 2008 Apr. 1.1007 TT                                   MPC
q   1.964018             (2000.0)            P               Q
z  +0.013806       Peri.  313.3915      +0.2413882      +0.1758661
                   Node   287.0752      -0.3027438      -0.9207130
e   0.972884       Incl.   93.2741      -0.9219967      +0.3483658
From 59 observations 2008 May 13-June 25.
An explanation of the orbital elements is available.

These orbital elements are also available in forms suitable for loading into a number of popular planetarium-type software programs.


Ephemeris

The following ephemeris is at intervals of five days. A daily ephemeris covering the same time interval is also available.

Personalized ephemerides for this (and other) objects may be generated using the Minor Planet & Comet Ephemeris Service.

Recent magnitude estimates for this comet (as reported to the ICQ) may be available.

Date    TT    R. A. (2000) Decl.     Delta      r     Elong.  Phase   m1    m2
2008 06 23    20 24.98   -33 40.5    1.270    2.201   148.4    14.0  15.9
2008 06 28    20 03.03   -31 26.8    1.254    2.228   157.6    10.0  16.0
2008 07 03    19 41.38   -28 55.7    1.254    2.256   166.9     5.9  16.0
2008 07 08    19 20.79   -26 12.6    1.270    2.285   175.5     2.0  16.1
2008 07 13    19 01.84   -23 24.5    1.303    2.316   173.3     3.0  16.2
2008 07 18    18 44.91   -20 38.7    1.351    2.347   164.7     6.6  16.4
2008 07 23    18 30.14   -18 00.9    1.413    2.379   156.2     9.9  16.5
2008 07 28    18 17.53   -15 35.2    1.488    2.412   148.2    12.8  16.7
2008 08 02    18 06.97   -13 23.8    1.574    2.445   140.7    15.3  16.9
2008 08 07    17 58.31   -11 27.0    1.669    2.479   133.6    17.2  17.1
2008 08 12    17 51.33   -09 44.4    1.771    2.514   127.0    18.8  17.2
2008 08 17    17 45.85   -08 14.9    1.879    2.550   120.8    19.9  17.4
2008 08 22    17 41.66   -06 56.9    1.991    2.586   115.0    20.8  17.6
2008 08 27    17 38.61   -05 49.0    2.107    2.623   109.5    21.3  17.8
2008 09 01    17 36.55   -04 49.7    2.226    2.660   104.2    21.6  18.0
2008 09 06    17 35.36   -03 57.7    2.346    2.698    99.3    21.6  18.2
2008 09 11    17 34.91   -03 11.7    2.466    2.736    94.5    21.5  18.3
2008 09 16    17 35.12   -02 30.6    2.587    2.775    90.0    21.2  18.5
2008 09 21    17 35.89   -01 53.6    2.707    2.814    85.6    20.8  18.7
2008 09 26    17 37.16   -01 19.9    2.826    2.853    81.4    20.3  18.8
2008 10 01    17 38.88   -00 48.8    2.944    2.893    77.3    19.7  19.0
2008 10 06    17 40.98   -00 19.6    3.059    2.933    73.3    19.1  19.1
2008 10 11    17 43.42   +00 08.2    3.172    2.973    69.5    18.3  19.2
2008 10 16    17 46.16   +00 35.1    3.282    3.014    65.8    17.6  19.4
2008 10 21    17 49.15   +01 01.3    3.389    3.055    62.2    16.8  19.5
2008 10 26    17 52.37   +01 27.4    3.493    3.095    58.7    15.9  19.6
2008 10 31    17 55.79   +01 53.5    3.593    3.137    55.3    15.1  19.7
2008 11 05    17 59.39   +02 20.0    3.689    3.178    52.1    14.3  19.9
2008 11 10    18 03.13   +02 47.1    3.781    3.219    49.0    13.4  20.0
2008 11 15    18 07.00   +03 15.0    3.868    3.261    46.1    12.6  20.1
2008 11 20    18 10.97   +03 44.0    3.951    3.303    43.3    11.8  20.2
2008 11 25    18 15.02   +04 14.1    4.030    3.345    40.8    11.1  20.3
2008 11 30    18 19.14   +04 45.6    4.103    3.387    38.4    10.4  20.4
2008 12 05    18 23.31   +05 18.6    4.172    3.429    36.4     9.8  20.5
2008 12 10    18 27.51   +05 53.2    4.235    3.471    34.7     9.3  20.5
2008 12 15    18 31.72   +06 29.6    4.294    3.513    33.3     8.8  20.6
2008 12 20    18 35.92   +07 07.7    4.348    3.555    32.3     8.5  20.7
2008 12 25    18 40.11   +07 47.9    4.396    3.598    31.8     8.3  20.8
2008 12 30    18 44.27   +08 30.0    4.440    3.640    31.7     8.2  20.8
2009 01 04    18 48.38   +09 14.2    4.479    3.683    32.1     8.2  20.9
2009 01 09    18 52.42   +10 00.6    4.512    3.725    32.9     8.2  21.0

Back to Observable Comets

MPC CBAT ICQ

Valid HTML 4.01!